Home   Weather   Jalpaiguri   Past weeks

Flag for India Past Weather in Jalpaiguri, West Bengal, India — Yesterday and Last 2 Weeks

81 °F


Feels Like: 82 °F
Forecast: 69 / 89 °F
Wind: No wind

Location: Lucknow / Amausi

Current Time: Oct 25, 2016 at 10:30:40 AM

Latest Report: Oct 25, 2016 at 9:30 AM

Visibility: 2 mi

Pressure: 29.80 "Hg

Humidity: 54%

Dew Point: 63 °F

Location of JalpaiguriLocation

Past Weather in Jalpaiguri — Graph


Jalpaiguri Temperature Yesterday

Maximum temperature yesterday: 91 °F (at 12:30 PM)
Minimum temperature yesterday: 68 °F (at 5:30 AM)
Average temperature yesterday: 80 °F

High & Low Weather Summary for the Past Weeks

High95 °F (Oct 10, 2:30 PM)100% (Oct 15, 6:30 AM)29.89 "Hg (Oct 15, 6:30 AM)
Low66 °F (Oct 14, 5:30 AM)28% (Oct 24, 2:30 PM)29.62 "Hg (Oct 10, 4:00 PM)
Average81 °F61%29.75 "Hg
* Reported Oct 10 8:30 AM — Oct 25 9:00 AM, Jalpaiguri, Weather by CustomWeather, © 2016

Note: Actual official high and low records may vary slightly from our data, if they occured in-between our weather recording intervals... More about our weather records


Jalpaiguri Weather History for the Previous 24 Hours

Scroll right to see more
Time TempWeatherWind HumidityBarometerVisibility
9:00 AM
Tue, Oct 25
73 °FHaze.No wind74%29.80 "Hg1 mi
8:00 AM68 °FFog.No wind88%29.77 "Hg1 mi
7:30 AM66 °FFog.2 mph94%29.77 "Hg1 mi
7:00 AM66 °FFog.2 mph88%29.77 "Hg1 mi
6:30 AM66 °FFog.No wind88%29.74 "Hg1 mi
6:00 AM66 °FFog.No wind88%29.74 "Hg1 mi
5:30 AM68 °FHaze.No wind88%29.71 "Hg1 mi
5:00 AM70 °FHaze.No wind78%29.71 "Hg1 mi
4:00 AM72 °FHaze.No wind73%29.71 "Hg1 mi
3:00 AM72 °FHaze.No wind73%29.71 "Hg1 mi
2:00 AM72 °FHaze.No wind73%29.71 "Hg1 mi
1:00 AM73 °FHaze.No wind69%29.74 "Hg1 mi
12:00 AM73 °FHaze.No wind69%29.74 "Hg1 mi
10:00 PM
Mon, Oct 24
77 °FHaze.No wind61%29.74 "Hg1 mi
9:00 PM77 °FHaze.No wind65%29.74 "Hg1 mi
8:30 PM79 °FHaze.No wind58%29.74 "Hg1 mi
8:00 PM82 °FHaze.No wind45%29.74 "Hg1 mi
7:30 PM82 °FHaze.No wind45%29.74 "Hg2 mi
7:00 PM82 °FHaze.No wind45%29.71 "Hg2 mi
6:30 PM84 °FHaze.No wind40%29.71 "Hg2 mi
6:00 PM84 °FHaze.No wind40%29.71 "Hg2 mi
5:30 PM86 °FHaze.No wind38%29.71 "Hg2 mi
4:30 PM90 °FHaze.5 mph29%29.68 "Hg2 mi
4:00 PM91 °FHaze.5 mph28%29.68 "Hg2 mi
3:30 PM91 °FHaze.5 mph28%29.68 "Hg2 mi
3:00 PM91 °FHaze.3 mph28%29.71 "Hg2 mi
2:30 PM91 °FHaze.5 mph28%29.71 "Hg2 mi
2:00 PM91 °FHaze.3 mph30%29.71 "Hg2 mi
1:30 PM91 °FHaze.5 mph30%29.74 "Hg2 mi
1:00 PM91 °FHaze.5 mph30%29.74 "Hg2 mi
12:30 PM91 °FHaze.5 mph30%29.74 "Hg2 mi
12:00 PM90 °FHaze.5 mph33%29.77 "Hg2 mi
11:30 AM86 °FHaze.No wind38%29.77 "Hg2 mi
11:00 AM84 °FHaze.No wind43%29.80 "Hg2 mi
10:30 AM82 °FHaze.No wind48%29.80 "Hg2 mi
10:00 AM81 °FHaze.2 mph51%29.80 "Hg2 mi
Weather by CustomWeather, © 2016

See weather overviewHow to use our weather pages